• In Kazakhstan
  • List of Countries
  • For 7 days
  • Water Temperature
  • Satellite Maps
  • Weather Map
  • News
  • Weather Widgets
  • user-avatar
    Login

    Hourly Weather Orange Walk

    Today, 20 June, Thursday

    Time Temperature Precipitation Wind Pressure Humidity
    00:00 +28°C° 0 mm 2 mps 757 mmHg 90%
    01:00 +28°C° 0 mm 2 mps 757 mmHg 91%
    02:00 +28°C° 0 mm 2 mps 756 mmHg 91%
    03:00 +28°C° 0 mm 2 mps 756 mmHg 91%
    04:00 +28°C° 0 mm 2 mps 756 mmHg 89%
    05:00 +28°C° 0 mm 2 mps 756 mmHg 87%
    06:00 +29°C° 0 mm 2 mps 756 mmHg 85%
    07:00 +30°C° 0.1 mm 3 mps 757 mmHg 79%
    08:00 +32°C° 0.1 mm 4 mps 757 mmHg 74%
    09:00 +33°C° 0.1 mm 4 mps 757 mmHg 68%
    10:00 +35°C° 0.1 mm 5 mps 757 mmHg 63%
    11:00 +36°C° 0.1 mm 5 mps 757 mmHg 58%
    12:00 +37°C° 0.1 mm 5 mps 757 mmHg 52%
    13:00 +36°C° 0.1 mm 5 mps 757 mmHg 54%
    14:00 +36°C° 0.1 mm 5 mps 756 mmHg 56%
    15:00 +35°C° 0.1 mm 5 mps 756 mmHg 58%
    16:00 +34°C° 0 mm 5 mps 756 mmHg 63%
    17:00 +33°C° 0 mm 4 mps 756 mmHg 68%
    18:00 +32°C° 0 mm 4 mps 756 mmHg 72%
    19:00 +30°C° 0 mm 3 mps 757 mmHg 77%
    20:00 +29°C° 0 mm 3 mps 757 mmHg 81%
    21:00 +29°C° 0 mm 3 mps 758 mmHg 85%
    22:00 +29°C° 0 mm 3 mps 757 mmHg 85%
    23:00 +28°C° 0 mm 2 mps 757 mmHg 84%

    Tomorrow, 21 June, Friday

    Time Temperature Precipitation Wind Pressure Humidity
    00:00 +28°C° 0 mm 2 mps 757 mmHg 84%
    01:00 +28°C° 0 mm 2 mps 757 mmHg 84%
    02:00 +28°C° 0 mm 2 mps 756 mmHg 84%
    03:00 +28°C° 0 mm 2 mps 756 mmHg 85%
    04:00 +28°C° 0 mm 2 mps 756 mmHg 84%
    05:00 +28°C° 0 mm 2 mps 757 mmHg 84%
    06:00 +28°C° 0 mm 2 mps 757 mmHg 83%
    07:00 +30°C° 0.1 mm 3 mps 758 mmHg 77%
    08:00 +33°C° 0.1 mm 4 mps 758 mmHg 70%
    09:00 +34°C° 0.1 mm 5 mps 759 mmHg 64%
    10:00 +35°C° 0.4 mm 5 mps 758 mmHg 61%
    11:00 +35°C° 0.4 mm 5 mps 758 mmHg 59%
    12:00 +36°C° 0.4 mm 6 mps 758 mmHg 57%
    13:00 +35°C° 0.4 mm 5 mps 757 mmHg 59%
    14:00 +35°C° 0.4 mm 5 mps 757 mmHg 60%
    15:00 +35°C° 0.4 mm 5 mps 757 mmHg 62%
    16:00 +33°C° 0.4 mm 5 mps 757 mmHg 67%
    17:00 +32°C° 0.4 mm 4 mps 757 mmHg 72%
    18:00 +30°C° 0.4 mm 4 mps 757 mmHg 76%
    19:00 +30°C° 0 mm 3 mps 758 mmHg 79%
    20:00 +29°C° 0 mm 3 mps 758 mmHg 82%
    21:00 +28°C° 0 mm 2 mps 759 mmHg 85%
    22:00 +28°C° 0.3 mm 2 mps 759 mmHg 87%
    23:00 +28°C° 0.3 mm 2 mps 758 mmHg 89%

    Day after tomorrow, 22 June, Saturday

    Time Temperature Precipitation Wind Pressure Humidity
    00:00 +28°C° 0.3 mm 2 mps 758 mmHg 91%
    01:00 +27°C° 0.1 mm 2 mps 758 mmHg 91%
    02:00 +27°C° 0.1 mm 2 mps 757 mmHg 92%
    03:00 +27°C° 0.1 mm 2 mps 757 mmHg 92%
    04:00 +27°C° 0.3 mm 2 mps 757 mmHg 93%
    05:00 +27°C° 0.3 mm 2 mps 757 mmHg 93%
    06:00 +28°C° 0.3 mm 2 mps 758 mmHg 93%
    07:00 +29°C° 0.2 mm 3 mps 758 mmHg 86%
    08:00 +30°C° 0.2 mm 4 mps 758 mmHg 79%
    09:00 +33°C° 0.2 mm 5 mps 759 mmHg 71%
    10:00 +33°C° 0.6 mm 5 mps 759 mmHg 71%
    11:00 +34°C° 0.6 mm 5 mps 758 mmHg 70%
    12:00 +34°C° 0.6 mm 5 mps 758 mmHg 70%
    13:00 +34°C° 0.3 mm 6 mps 758 mmHg 66%
    14:00 +35°C° 0.3 mm 6 mps 757 mmHg 62%
    15:00 +35°C° 0.3 mm 6 mps 757 mmHg 58%
    16:00 +34°C° 0 mm 5 mps 757 mmHg 63%
    17:00 +33°C° 0 mm 5 mps 757 mmHg 69%
    18:00 +30°C° 0 mm 4 mps 757 mmHg 74%
    19:00 +30°C° 0 mm 4 mps 758 mmHg 77%
    20:00 +29°C° 0 mm 3 mps 758 mmHg 81%
    21:00 +28°C° 0 mm 3 mps 759 mmHg 85%
    22:00 +28°C° 0 mm 3 mps 759 mmHg 85%
    23:00 +28°C° 0 mm 3 mps 758 mmHg 84%

    23 June, Sunday

    Time Temperature Precipitation Wind Pressure Humidity
    00:00 +28°C° 0 mm 3 mps 758 mmHg 84%
    01:00 +28°C° 0 mm 3 mps 758 mmHg 83%
    02:00 +28°C° 0 mm 3 mps 758 mmHg 83%
    03:00 +28°C° 0 mm 3 mps 757 mmHg 82%
    04:00 +29°C° 0 mm 3 mps 757 mmHg 82%
    05:00 +29°C° 0 mm 3 mps 758 mmHg 81%
    06:00 +29°C° 0 mm 3 mps 758 mmHg 81%
    07:00 +30°C° 0 mm 4 mps 758 mmHg 74%
    08:00 +33°C° 0 mm 5 mps 759 mmHg 67%
    09:00 +34°C° 0 mm 5 mps 759 mmHg 60%
    10:00 +35°C° 0 mm 6 mps 759 mmHg 57%
    11:00 +36°C° 0 mm 6 mps 759 mmHg 54%
    12:00 +36°C° 0 mm 6 mps 758 mmHg 51%
    13:00 +36°C° 0 mm 6 mps 758 mmHg 52%
    14:00 +36°C° 0 mm 6 mps 757 mmHg 52%
    15:00 +36°C° 0 mm 5 mps 757 mmHg 53%
    16:00 +34°C° 0 mm 5 mps 757 mmHg 58%
    17:00 +33°C° 0 mm 4 mps 757 mmHg 64%
    18:00 +30°C° 0 mm 4 mps 757 mmHg 70%
    19:00 +30°C° 0 mm 3 mps 757 mmHg 74%
    20:00 +29°C° 0 mm 3 mps 758 mmHg 78%
    21:00 +28°C° 0 mm 2 mps 759 mmHg 83%
    22:00 +28°C° 0 mm 2 mps 758 mmHg 84%
    23:00 +28°C° 0 mm 2 mps 758 mmHg 85%

    24 June, Monday

    Time Temperature Precipitation Wind Pressure Humidity
    00:00 +28°C° 0 mm 2 mps 758 mmHg 86%
    01:00 +27°C° 0 mm 2 mps 757 mmHg 87%
    02:00 +27°C° 0 mm 2 mps 757 mmHg 88%
    03:00 +27°C° 0 mm 2 mps 756 mmHg 89%
    04:00 +27°C° 0 mm 2 mps 757 mmHg 89%
    05:00 +27°C° 0 mm 2 mps 757 mmHg 88%
    06:00 +27°C° 0 mm 1 mps 757 mmHg 88%
    07:00 +29°C° 0 mm 2 mps 757 mmHg 78%
    08:00 +31°C° 0 mm 3 mps 758 mmHg 67%
    09:00 +34°C° 0 mm 4 mps 758 mmHg 57%
    10:00 +35°C° 0 mm 4 mps 758 mmHg 52%
    11:00 +36°C° 0 mm 5 mps 758 mmHg 48%
    12:00 +37°C° 0 mm 5 mps 757 mmHg 44%
    13:00 +36°C° 0 mm 5 mps 757 mmHg 44%
    14:00 +36°C° 0 mm 5 mps 756 mmHg 45%
    15:00 +36°C° 0 mm 5 mps 756 mmHg 45%
    16:00 +34°C° 0 mm 4 mps 756 mmHg 53%
    17:00 +33°C° 0 mm 4 mps 756 mmHg 61%
    18:00 +30°C° 0 mm 3 mps 756 mmHg 69%
    19:00 +29°C° 0 mm 2 mps 756 mmHg 76%
    20:00 +28°C° 0 mm 2 mps 757 mmHg 83%
    21:00 +27°C° 0 mm 1 mps 757 mmHg 90%
    22:00 +27°C° 0.1 mm 1 mps 757 mmHg 91%
    23:00 +27°C° 0.1 mm 1 mps 757 mmHg 92%

    25 June, Tuesday

    Time Temperature Precipitation Wind Pressure Humidity
    00:00 +27°C° 0.1 mm 1 mps 757 mmHg 92%
    01:00 +27°C° 0.1 mm 1 mps 757 mmHg 93%
    02:00 +26°C° 0.1 mm 1 mps 757 mmHg 94%
    03:00 +26°C° 0.1 mm 1 mps 756 mmHg 94%
    04:00 +27°C° 0.1 mm 1 mps 756 mmHg 94%
    05:00 +27°C° 0.1 mm 1 mps 757 mmHg 93%
    06:00 +27°C° 0.1 mm 1 mps 757 mmHg 93%
    07:00 +28°C° 0.6 mm 2 mps 757 mmHg 88%
    08:00 +30°C° 0.6 mm 3 mps 757 mmHg 83%
    09:00 +32°C° 0.6 mm 4 mps 758 mmHg 77%
    10:00 +32°C° 1.4 mm 4 mps 758 mmHg 76%
    11:00 +33°C° 1.4 mm 4 mps 757 mmHg 75%
    12:00 +33°C° 1.4 mm 4 mps 757 mmHg 73%
    13:00 +33°C° 0.9 mm 4 mps 757 mmHg 71%
    14:00 +33°C° 0.9 mm 4 mps 756 mmHg 70%
    15:00 +34°C° 0.9 mm 4 mps 756 mmHg 68%
    16:00 +33°C° 0.5 mm 4 mps 756 mmHg 73%
    17:00 +30°C° 0.5 mm 3 mps 756 mmHg 78%
    18:00 +29°C° 0.5 mm 3 mps 756 mmHg 83%
    19:00 +29°C° 0.2 mm 3 mps 757 mmHg 86%
    20:00 +28°C° 0.2 mm 3 mps 757 mmHg 89%
    21:00 +28°C° 0.2 mm 2 mps 758 mmHg 92%
    22:00 +27°C° 0.1 mm 2 mps 758 mmHg 92%
    23:00 +27°C° 0.1 mm 2 mps 758 mmHg 93%
    Show more